Regional Weather Roundup
Issued by NWS

Home | Current Version | Previous Version | Graphics & Text | Print | Product List | Glossary On
Versions: 1 2 3 4 5 6 7 8 9 10 11 12 13 14 15 16 17 18 19 20 21 22 23 24 25 26 27 28 29 30 31 32 33 34 35 36 37 38 39 40 41 42 43 44 45 46 47 48 49 50
281
ASUS43 KLSX 260510
RWRMO

WEATHER SUMMARY FOR MISSOURI
NATIONAL WEATHER SERVICE SPRINGFIELD MO
1200 AM CDT TUE JUL 26 2016

NOTE: "FAIR" INDICATES FEW OR NO CLOUDS BELOW 12,000 FEET WITH NO
       SIGNIFICANT WEATHER AND/OR OBSTRUCTIONS TO VISIBILITY.
       CURRENT SKY AND/OR WEATHER CONDITIONS ARE NOT AVAILABLE FOR
       CHILLICOTHE AND FARMINGTON.

MOZ001>031-035>038-043-044-053-054-260600-
...NORTHERN AND WESTERN MISSOURI...

CITY           SKY/WX    TMP DP  RH WIND       PRES   REMARKS
KANSAS CTY INT CLOUDY    77  69  76 NE6       30.07S
KANSAS C DTWN  CLOUDY    79  67  66 E6        30.04F
LEE`S SUMMIT   CLOUDY    77  71  82 NE5       30.06F
ST JOSEPH      CLEAR     70  68  93 N6        30.06F
CHILLICOTHE      N/A     72  69  90 CALM      30.08S
KIRKSVILLE     CLOUDY    67  66  97 CALM      30.08S

$$
MOZ066>068-077>081-088>096-101>105-260600-
...SOUTHWEST MISSOURI...

CITY           SKY/WX    TMP DP  RH WIND       PRES   REMARKS
SPRINGFIELD    CLEAR     76  71  85 E6        30.04F
JOPLIN         PTCLDY    75  73  93 NE5       30.03S
BRANSON        PTCLDY    75  72  88 CALM      30.04F

$$
MOZ032>034-039>042-045>050-055>058-069>072-260600-
...CENTRAL MISSOURI...

CITY           SKY/WX    TMP DP  RH WIND       PRES   REMARKS
COLUMBIA       PTCLDY    71  70  96 N7        30.05F
JEFFERSON CITY CLEAR     72  70  93 W3        30.04S
ROLLA          PTCLDY    73  71  93 NE5       30.04F
SEDALIA        PTCLDY    74  71  91 CALM      30.07S
WHITEMAN AFB   CLOUDY    74  74 100 E2        30.05S
OSAGE BEACH    CLOUDY    73  71  93 NE3       30.05F

$$
MOZ051-052-059>065-260600-
...EAST CENTRAL MISSOURI...

CITY           SKY/WX    TMP DP  RH WIND       PRES   REMARKS
ST LOUIS INTL  CLOUDY    80  74  81 NW5       30.03
SPIRIT OF STL  CLOUDY    76  75  97 W3        30.02R
ST CHARLES     MOCLDY    77  76  96 N3        30.02R

$$
MOZ072>076-082>087-097>100-106>115-260600-
...SOUTH CENTRAL AND SOUTHEAST MISSOURI...

CITY           SKY/WX    TMP DP  RH WIND       PRES   REMARKS
CAPE GIRARDEAU CLEAR     76  75  97 W3        29.99F
FARMINGTON     CLOUDY    78  71  79 NW3       30.04S
POPLAR BLUFF   PTCLDY    76  75  97 CALM      29.99F FOG
WEST PLAINS    LGT RAIN  75  72  90 N3        30.06F

$$




USA.gov is the U.S. government's official web portal to all federal, state and local government web resources and services.